Location: Wald
(31.7579°N, 86.6655°W)
Time: 12:21:28
(UTC+00:00)

USA 186 - Pass Details

Date: 14 July 2020
Orbit: 262 x 437 km, 96.9° (Epoch: 06 August)

Event Time Altitude Azimuth Distance (km) Brightness Sun altitude
Exits shadow 01:48:58 - 184° (S) 2,329 5.2 -11.0°
Reaches altitude 10° 01:50:57 10° 192° (SSW) 1,511 4.3 -11.3°
Maximum altitude 01:53:59 37° 261° (W) 666 3.2 -11.9°
Drops below altitude 10° 01:56:55 10° 331° (NNW) 1,454 5.6 -12.4°
Sets 01:58:56 0° 340° (NNW) 2,284 6.5 -12.7°
